RH
84 82 73 51 29 33 12 9 6 5 4 4 3 3 3 3 3 5 28 17 14 6 5 6 6 6 7 7 7 7 7 7 8
53 60 76 48 14 8 6 5 5 4 4 3 3 3 3 3 4 7 7 6 11 8 6 7 7 7 7 7 7 7 7 8 7
15 24 41 24 13 7 6 5 4 4 4 4 3 3 3 3 4 5 5 10 6 7 7 8 8 8 8 8 8 7 8 8 8
8 7 6 6 7 6 6 5 4 4 4 3 3 3 3 4 4 5 5 6 6 6 7 7 8 8 8 8 7 8 8 7 7
5 4 4 5 6 6 5 5 4 4 4 3 3 3 3 3 4 4 5 6 6 5 6 6 7 7 7 7 7 7 7 7 7
4 4 4 4 5 5 5 4 4 4 3 3 3 4 4 3 4 4 4 4 5 5 6 6 7 7 7 7 7 7 7 7 8
4 4 4 4 5 5 5 5 4 4 3 3 4 4 4 4 4 4 4 5 5 6 6 6 7 7 8 8 8 7 8 8 9
4 4 4 4 4 4 4 5 4 4 4 4 4 4 4 4 4 4 5 5 6 6 6 7 8 8 7 7 7 8 8 10 12
4 4 4 4 4 4 4 5 4 4 4 4 4 4 4 4 4 5 5 6 6 7 7 8 8 8 8 7 8 9 10 13 17
4 4 3 4 4 5 4 5 4 4 4 4 4 4 4 5 5 5 6 6 6 7 7 8 7 7 8 8 9 10 12 15 19
4 4 4 4 4 5 5 6 5 4 5 5 5 4 5 5 6 6 6 6 6 6 7 7 7 7 8 9 10 11 13 16 19
4 4 4 4 5 6 6 6 5 4 5 6 6 5 5 5 6 6 6 6 6 6 7 7 7 8 9 10 11 13 15 17 19
5 4 4 4 5 6 6 6 5 5 6 7 7 6 6 6 6 6 6 6 6 7 7 8 8 9 10 12 13 14 15 16 18
5 5 5 5 5 6 7 7 6 5 6 7 8 7 6 6 6 7 7 7 7 8 8 9 10 10 12 13 14 14 15 15 16
6 5 5 6 6 6 7 8 7 6 7 8 8 9 7 6 7 7 8 8 8 8 9 10 11 12 13 13 14 14 15 15 16
7 7 6 6 6 8 8 9 8 7 6 7 8 9 9 8 8 8 8 8 9 9 10 11 12 13 13 14 14 15 16 17 18
8 8 8 8 8 9 9 9 9 8 8 7 9 10 10 9 9 10 10 9 9 10 10 11 12 12 14 15 16 16 16 17 18
11 10 11 11 11 11 11 11 10 9 10 9 11 12 10 10 12 12 11 11 11 11 11 12 13 13 14 15 16 16 17 18 20
14 11 12 12 12 12 12 11 11 11 12 14 14 14 13 12 12 13 13 14 14 14 14 14 15 15 15 16 16 17 18 19 20
18 16 14 14 14 14 14 15 14 15 17 16 18 19 17 15 14 13 14 16 16 17 17 17 16 16 16 17 18 18 19 21 23
Wind_Speed
17 17 17 13 13 11 8 10 11 11 9 9 8 7 7 7 7 7 11 11 10 10 12 11 10 10 10 9 9 8 8 8 9
23 21 16 17 14 12 10 11 12 11 10 9 8 6 6 5 7 9 10 10 9 11 12 12 11 10 9 8 7 8 8 9 9
20 21 17 15 15 13 12 13 14 13 11 10 9 7 6 5 6 10 10 9 9 10 10 11 10 9 7 7 8 8 9 8 8
20 19 18 15 17 15 14 14 15 14 13 11 9 7 6 6 7 10 11 9 9 9 10 9 9 8 8 8 7 8 8 8 7
19 18 17 18 19 17 16 16 16 15 14 11 9 7 7 8 7 9 10 9 7 7 7 7 8 8 8 7 7 7 6 6 6
21 18 18 18 18 18 18 17 17 17 15 11 10 9 7 7 7 8 8 9 8 7 7 7 7 7 6 6 5 5 4 4 5
21 20 19 20 20 20 19 19 18 17 14 13 12 11 10 9 8 8 8 9 9 8 7 7 6 5 5 4 3 2 3 4 4
21 21 22 22 23 22 20 19 19 18 16 14 14 13 12 10 9 9 9 9 10 10 8 6 5 4 3 2 1 1 2 4 5
22 23 24 23 24 23 21 21 21 20 18 16 14 13 12 10 10 9 9 8 9 9 8 7 6 4 3 2 2 3 3 4 5
23 24 24 25 25 24 23 23 22 21 19 16 15 14 12 10 11 10 10 10 9 8 8 7 6 6 5 5 5 5 6 6 7
23 24 24 24 25 25 24 24 24 21 19 17 17 16 13 11 12 12 11 11 10 10 10 9 9 9 8 8 8 8 9 10 10
24 25 24 25 26 26 26 26 25 23 20 18 19 17 14 14 14 14 13 12 12 12 13 12 12 11 10 10 9 11 12 13 14
26 26 26 26 27 27 27 27 25 23 21 20 21 20 18 17 17 16 15 15 15 14 14 15 14 13 11 12 13 14 14 15 17
26 26 27 27 27 28 27 26 26 24 23 22 22 22 21 21 19 17 17 17 17 17 17 17 16 15 15 15 16 17 18 18 19
27 27 28 28 28 28 27 26 26 25 25 25 25 24 23 24 22 20 20 20 21 20 19 18 18 17 18 18 18 19 20 20 21
28 30 30 31 29 28 27 27 27 26 27 27 26 25 26 25 24 23 23 22 22 22 21 20 21 20 20 20 21 21 22 22 23
27 28 29 29 29 28 29 29 28 28 28 27 26 28 29 27 27 26 26 26 25 25 25 24 24 24 22 22 23 23 24 26 25
26 28 28 29 28 29 30 30 30 29 30 29 29 30 31 29 29 29 29 29 29 28 28 28 26 25 25 25 25 26 27 27 26
28 28 28 29 29 30 30 32 32 31 32 32 30 32 32 32 32 32 31 32 32 30 29 30 28 28 27 27 28 29 30 29 29
29 30 30 30 31 31 31 32 32 33 33 34 31 34 35 36 35 34 32 35 32 32 32 32 32 30 29 29 28 29 30 30 31
Wind_Direction
188 198 210 213 209 209 201 187 182 178 171 170 164 160 153 146 138 129 111 115 119 132 126 125 121 118 115 111 104 97 87 80 72
197 204 202 209 207 204 194 189 189 187 185 182 176 175 162 162 148 135 127 127 128 124 129 131 126 123 118 115 105 94 83 76 73
210 213 211 202 210 214 199 192 192 192 195 191 187 189 182 184 162 144 132 128 130 132 130 130 127 125 121 103 96 88 83 72 64
217 221 223 213 211 207 200 197 195 193 199 199 193 198 183 172 165 147 138 137 140 137 131 124 120 119 111 103 96 88 81 74 64
222 221 219 210 210 204 199 196 196 200 203 203 200 197 194 175 172 158 146 138 139 128 122 120 117 118 114 113 107 97 87 77 61
226 220 215 214 211 208 199 194 199 203 205 200 205 199 200 192 182 173 160 151 145 139 134 138 135 135 131 120 104 91 81 61 44
226 223 214 211 212 212 202 196 201 206 207 203 203 205 198 197 192 178 176 162 156 158 159 163 154 149 127 104 96 78 49 33 21
222 220 216 208 213 213 205 199 203 205 211 210 208 209 207 200 195 188 185 183 173 173 174 171 170 150 151 156 149 350 352 360 360
219 216 216 210 213 214 208 201 207 208 212 214 216 213 209 201 206 200 194 200 195 187 188 182 186 187 200 232 262 290 315 319 325
222 220 216 212 209 211 211 205 210 211 213 217 225 223 216 197 214 210 210 209 215 209 209 207 212 217 232 243 259 276 287 295 302
222 221 218 215 212 208 214 209 212 212 214 218 224 230 222 204 214 217 218 221 225 225 230 227 227 233 240 251 263 276 284 289 292
222 221 217 214 215 212 215 217 218 214 212 219 230 236 231 227 219 229 227 229 229 232 233 232 233 237 242 254 269 276 281 289 292
222 221 220 218 217 217 218 222 222 219 216 220 231 233 237 234 232 230 233 235 231 234 237 238 240 248 256 265 269 274 280 282 285
221 221 221 222 222 225 224 225 228 225 224 224 230 237 240 243 239 236 236 239 240 237 235 242 244 248 253 258 264 269 274 280 284
218 220 222 223 225 227 230 231 232 232 231 231 233 239 242 245 247 244 240 238 244 244 242 240 247 249 256 260 267 272 276 280 284
221 217 220 222 225 228 232 235 238 239 240 240 242 245 249 251 253 254 252 249 247 249 249 246 247 251 256 263 267 271 275 280 284
226 224 224 226 225 226 229 233 238 242 245 249 249 247 248 251 255 257 256 256 252 251 253 250 251 254 257 259 265 270 275 278 283
224 223 225 225 226 226 231 233 237 239 245 247 248 250 252 253 254 256 259 259 257 254 255 257 257 258 260 262 266 271 273 277 280
225 227 228 232 232 232 236 238 239 240 242 245 245 251 253 254 254 254 258 261 263 263 261 262 260 260 259 263 267 270 275 279 282
223 225 227 229 235 235 236 240 244 245 247 249 247 250 253 253 254 256 258 260 263 265 264 263 264 263 263 264 267 271 275 278 281